Regional Weather Roundup
Issued by NWS Upton, NY

Current Version | Previous Version | Graphics & Text | Print | Product List | Glossary Off
Versions: 1 2 3 4 5 6 7 8 9 10 11 12 13 14 15 16 17 18 19 20 21 22 23 24 25 26 27 28 29 30

000
ASUS41 KOKX 171308
RWROKX

Regional Weather Roundup
National Weather Service New York NY
800 AM EST SUN DEC 17 2017

Note: "FAIR" indicates few or no clouds below 12,000 feet with no
significant weather and/or obstructions to visibility.

NYZ071-072-176-178-NJZ106-104-171400-
New York City Metro Area

CITY           SKY/WX    TMP DP  RH WIND       PRES   REMARKS
Central Park   CLOUDY    32  21  64 N3        30.30R
Bronx Bot Gard   N/A     32  21  64 N5        30.30S WCI  27
Bronx Lehman C   N/A     32  21  64 N2          N/A
LaGuardia Arpt CLOUDY    34  20  56 NE5       30.29R WCI  30
Queens College   N/A     34  21  60 NE2         N/A
Kennedy Intl   CLOUDY    33  22  63 CALM      30.29R
Breezy Point     N/A     32 N/A N/A NE5         N/A  WCI  27
Brooklyn Coll    N/A     34  23  64 NE3         N/A
Staten Island    N/A     32  23  69 N5          N/A  WCI  27
Newark/Liberty CLOUDY    32  22  66 N6        30.29R WCI  26
Teterboro      CLOUDY    32  21  64 NW3       30.28R
$$

NYZ177-179-078>081-171400-
Long Island New York

CITY           SKY/WX    TMP DP  RH WIND       PRES   REMARKS
Jones Beach      N/A    N/A N/A N/A E5          N/A
Wantagh          N/A     32  23  69 E1          N/A
Matinecock Pt    N/A     32 N/A N/A SE2         N/A
Farmingdale    CLOUDY    30  22  72 CALM      30.29R
MacArthur/ISP  CLOUDY    29  19  66 CALM      30.29R
Shirley        PTCLDY    27  18  69 CALM      30.30R
Mt Sinai Harb    N/A    N/A N/A N/A N7          N/A
Westhampton    CLEAR     24  16  71 CALM      30.29R
East Hampton   FAIR      27  16  62 N3        30.27R
Southold         N/A     30  18  59 N8          N/A  WCI  23
Montauk          N/A     31  16  54 N15       30.28R WCI  20
$$

NYZ052-065-067-171400-
Hudson Valley

CITY           SKY/WX    TMP DP  RH WIND       PRES   REMARKS
White Plains   MOCLDY    29  18  63 CALM      30.25R
Larchmont Harb   N/A    N/A N/A N/A N2          N/A
Croton On Huds   N/A    N/A N/A N/A N3          N/A
Somers           N/A     25  18  74 E3          N/A
Brewster         N/A     18  14  86 N2          N/A
Newburgh       MOCLDY    25  18  74 VRB5      30.28R WCI  19
Montgomery     CLOUDY    25  19  78 SW5       30.27R WCI  19
Otisville        N/A     27  19  74 CALM        N/A
Warwick          N/A     28  21  74 NW1         N/A
Suffern          N/A     30  19  64 NW6         N/A  WCI  24
Poughkeepsie   CLOUDY    16  11  80 CALM      30.30R
Albany         CLOUDY     9   4  80 N3        30.30R
$$

NJZ001-105-106-008-010-013-015-019>022-104-171400-
New Jersey

CITY           SKY/WX    TMP DP  RH WIND       PRES   REMARKS
Newark/Liberty CLOUDY    32  22  66 N6        30.29R WCI  26
Teterboro      CLOUDY    32  21  64 NW3       30.28R
Caldwell       CLOUDY    31  20  63 CALM      30.29R
Somerville     CLOUDY    29  25  85 CALM      30.27R
Linden         CLOUDY    33  21  62 CALM      30.29S
Perth Amboy      N/A     32 N/A N/A N2          N/A
Sussex         CLOUDY    29  19  66 CALM      30.26S
Andover        NOT AVBL
Trenton        CLOUDY    31  23  72 N3        30.27R
Millville      PTCLDY    27  26  96 CALM      30.27R
Atlantic City  CLOUDY    29  26  89 CALM      30.27R
Wrightstown    PTCLDY    29  24  83 CALM      30.24R
Toms River     PTCLDY    27  25  92 CALM      30.28R
Belmar         PTCLDY    31  25  78 N3        30.28R
$$

PAZ047>061-062-071-171400-
Eastern Pennsylvania

CITY           SKY/WX    TMP DP  RH WIND       PRES   REMARKS
Philadelphia   CLOUDY    33  25  72 NE6       30.28S WCI  28
Allentown      CLOUDY    31  22  69 E3        30.27R
Scranton       CLOUDY    27  21  78 N3        30.24R
$$

CTZ002-004>006-009-010-012-RIZ004-006-007-MAZ004-011-015-171400-
Southern New England

 In CT

CITY           SKY/WX    TMP DP  RH WIND       PRES   REMARKS
Bradley Intl   CLOUDY    15   9  76 SE3       30.29R
Hartford       CLOUDY    17  13  84 CALM      30.30R
Danbury        CLOUDY    20  15  81 CALM      30.27R
Wtrbury/Oxford CLOUDY    13   9  84 N7        30.24R WCI   3
Norwalk Harbor   N/A    N/A N/A N/A NE7         N/A
Bridgeport     CLOUDY    25  15  66 CALM      30.30R
Meriden        CLOUDY    13  10  88 CALM      30.29R
New Haven      CLOUDY    20  14  77 N7        30.29R WCI  11
Chester        FAIR      21   9  58 N6        30.26R WCI  14
Groton         CLEAR     24  11  57 N7        30.28S WCI  16
Willimantic    CLOUDY     8   4  83 CALM      30.29S

 In RI

CITY           SKY/WX    TMP DP  RH WIND       PRES   REMARKS
Providence     CLOUDY    16  12  84 NE3       30.28R
Block Island   CLEAR     27  13  55 NW10G20   30.27R WCI  17
Westerly       CLOUDY    23   8  52 NW6       30.28S WCI  16

In MA

CITY           SKY/WX    TMP DP  RH WIND       PRES   REMARKS
Boston         PTCLDY    20   6  55 W8        30.27S WCI  10
Worcester      CLEAR     15   3  59 W14       30.20R WCI   0
Westfield      CLOUDY     9   7  92 CALM      30.28R
Provincetown   CLEAR     26  14  60 NW16      30.25  WCI  14
Nantucket      CLEAR     26  12  55 NW12      30.25R WCI  16
$$

ANZ330-335-338-340-345-350-353-355-171400-
Coastal Marine Observations


STATION/POSITION TIME  SKY/WX   TEMP    WIND        PRES    VSBY  WAVE
                                AIR SEA DIR/SP/G                  HT/PER
                 (UTC)          (F)     (DEG/KT/KT) (MB)    (MI)  (FT/S)
NY Harb Entrance 1150            37 50   20/  8/ 12 1024.4          2/ 6
20 S Fire Island 1250            36 50   30/  6/  8 1025.4          3/ 6
15 E Barnegat Li 1230               49                N/A           2/ 5
Hudson Canyon    1150            42 54   20/  8/ 10 1024.1          4/ 6
Kings Point      1248            33 42   20/  5/  6 1026.4
Execution Rocks  1230            33     340/  4/ 10   N/A
Western LI Sound NOT AVBL
Central LI Sound 1215            28      10/ 10/ 14   N/A           1
Robbins Reef     1248            33     350/  7/  9 1025.9
$$


>>>>>>>>>>>>>>>>>>>>>>>>>>>> KEY <<<<<<<<<<<<<<<<<<<<<<<<<<<
>                                                          <
>     SKY/WX - Sky Condition/Present Weather               <
>     TMP    - Temperature in Fahrenheit                   <
>     DP     - Dew Point in Fahrenheit                     <
>     RH     - Relative Humidity in Percent                <
>     WIND   - Direction (from) and Speed in MPH           <
>     PRES   - Mean Sea Level Pressure (inches of Hg)      <
>     WCI    - Wind Chill Index                            <
>     VSB    - Visibility in Miles                         <
>     HX     - Heat Index                                  <
>     TC     - Temperature in Celsius                      <
>     VRB    - Varibale Wind Direction                     <
>                                                          <
>>>>>>>>>>>>>>>>>>>>>>>>>>>> KEY <<<<<<<<<<<<<<<<<<<<<<<<<<<




USA.gov is the U.S. government's official web portal to all federal, state and local government web resources and services.